Tracking 31011 objects as of 12-Jul-2025
HD Live streaming from Space Station
objects crossing your sky now

SL-8 DEB

Track SL-8 DEB now!
10-day predictions


NORAD ID: 21181
Int'l Code: 1991-009AU
Perigee: 1,423.3 km
Apogee: 1,753.2 km
Inclination: 73.9 °
Period: 117.8 minutes
Semi major axis: 7959 km
RCS: 0.0238 m2 (small)
Launch date: February 12, 1991
Source: Commonwealth of Independent States (former USSR) (CIS)
Launch site: PLESETSK MISSILE AND SPACE COMPLEX (PKMTR)

Note: This is SATELLITE DEBRIS
Your satellite tracking list
Your tracking list is empty




NASA's NSSDC Master Catalog

Two Line Element Set (TLE):
1 21181U 91009AU  25193.51389770  .00000112  00000-0  11003-2 0  9993
2 21181  73.9473  95.9607 0207202  80.3679 103.4544 12.22632795532606
Source of the keplerian elements: AFSPC